Upstream stations:
Downstream station:
SHEF ID: CASK1 NF NINNESCAH R AB CHENEY RE, KS
STATION TYPE:
PRECIP STAGE RIV-FLOW BAT-LOAD
in ft cfs volt
Ccp-Rev Ccp-Rev Ccp-Rev Ccp-Rev
(US/Central)
09/13 00:00 0.00 5.68 13 12.57
09/13 01:00 0.00 5.70 14 12.57
09/13 02:00 0.00 5.69 14 12.49
09/13 03:00 0.00 5.70 14 12.49
09/13 04:00 0.00 5.70 14 12.49
09/13 05:00 0.00 5.71 15 12.41
09/13 06:00 0.00 5.71 15 12.41
09/13 07:00 0.00 5.72 16 12.41
09/13 08:00 0.00 5.73 16 12.41
09/13 09:00 0.00 5.73 16 12.89
09/13 10:00 0.00 5.73 16 13.60
09/13 11:00 0.00 5.73 16 13.60
09/13 12:00 0.00 5.72 16 ----
09/13 13:00 0.00 5.71 15 13.44
09/13 14:00 0.00 5.71 15 13.44
09/13 15:00 0.00 5.71 15 13.37
09/13 16:00 0.00 5.71 15 13.37
09/13 17:00 0.00 5.70 14 13.29
09/13 18:00 0.00 5.70 14 13.21
09/13 19:00 0.00 5.70 14 13.13
09/13 20:00 0.00 5.69 14 12.73
09/13 21:00 0.00 5.67 13 12.65
09/13 22:00 0.00 5.68 13 12.65
09/13 23:00 0.00 5.67 13 12.57